User: anonymous   Login
Location: Ballingbuur
(53.0000°N, 5.7667°E)
Time: 11:59:00
(UTC+00:00)
Language:

Okean O Rocket - Orbit

View from above orbital plane
View from above orbital plane
View from above satellite
View from above satellite

Ground track
Ground track

The orbit data is extracted from the following two-line orbital elements,

1 25861U 99039B   21061.90654612  .00000047  00000-0  13937-4 0  9993
2 25861  98.2097  75.1802 0016632  51.1081 359.7435 14.78623497165814
Epoch (UTC): 02 March 2021 21:45:25
Eccentricity: 0.0016632
inclination: 98.2097°
perigee height: 622 km
apogee height: 645 km
right ascension of ascending node: 75.1802°
argument of perigee: 51.1081°
revolutions per day: 14.78623497
mean anomaly at epoch: 359.7435°
orbit number at epoch: 16581

The dashed part of the orbit path shows where the satellite is in the earth's shadow,  

DLR